Starlink 32617

operational
NORAD ID: 62076 Int'l Des: 2024-217 Owner: SPXS Country: US Constellation: starlink
LEOCIRCULAR

关于 Starlink 32617

正在加载描述...

实时位置

正在加载3D地球...

即将过境

高度历史

Altitude vs Time

uPlot chart will show altitude changes over time

两行轨道根数

1 62076U 24217V 25258.04528888 .00038599 00000-0 96949-3 0 9996
2 62076 53.1596 278.7938 0001244 61.8613 298.2517 15.39638333 46684
Epoch: Sep 15, 2025 • Age: 23 hours

当前状态

高度 446.8 km
速度 7.65 km/s
星下点 20.96°N, 73°W
发射日期 Nov 24, 2024
运行时间 0.8 years
类型 internet

技术详情

分类 Payload
质量 730.00 kg
干质量 700.00 kg
总质量 730.00 kg
长度 0.30 m
直径 4.10 m
跨度 29.00 m
形状 Box + pan
制造商 SPXS
平台类型 Starlink V2M
阶段状态 In Orbit
所有者/国家 SPXS/US

大型星座

Loading constellations...